Flag for U.S.A. Weather past 2 weeks in Sioux Falls, South Dakota, U.S.A.

Now
79 °F

Partly sunny.


Feels Like: 79 °F
Forecast: 59 / 74 °F
Wind: 8 mph from South

Location: Foss Field

Current Time: May 27, 2015 at 7:21:04 PM

Latest Report: May 27, 2015 at 6:56 PM


Visibility: 10 mi

Pressure: 29.96 "Hg

Humidity: 38%

Dew point: 51 °F

Location of Sioux FallsLocation

Historic Weather in Sioux Falls — Graph

°F

Sioux Falls temperature yesterday

Maximum temperature yesterday: 68 °F (at 5:56 PM)
Minimum temperature yesterday: 54 °F (at 5:56 AM)
Average temperature yesterday: 59 °F

Past Weeks' High & Low Weather Summary

 TemperatureHumidityPressure
High82 °F (May 27, 1:56 PM)97% (May 14, 10:56 AM)30.48 "Hg (May 14, 10:56 AM)
Low37 °F (May 18, 4:56 AM)24% (May 21, 2:56 PM)29.51 "Hg (May 17, 5:56 AM)
Average58 °F70%30.01 "Hg
* Reported May 12 5:56 PM — May 27 5:56 PM, Sioux Falls, Weather by CustomWeather, © 2015

Note: Actual official high and low records may vary slightly from our data, if they occured in-between our weather recording intervals... More about our weather records

Advertising

Sioux Falls weather history for previous 24 hours

 ConditionsComfort  
Time TempWeatherWind HumidityBarometerVisibility
5:56 PM
Wed, May 27
80 °FMostly cloudy.6 mph38%29.98 "Hg10 mi
4:56 PM80 °FBroken clouds.3 mph36%29.99 "Hg10 mi
3:56 PM80 °FScattered clouds.5 mph34%30.00 "Hg10 mi
2:56 PM82 °FScattered clouds.8 mph35%30.00 "Hg10 mi
1:56 PM82 °FScattered clouds.No wind37%29.99 "Hg10 mi
12:56 PM80 °FScattered clouds.8 mph36%30.01 "Hg10 mi
11:56 AM79 °FPassing clouds.7 mph41%30.00 "Hg10 mi
10:56 AM77 °FPassing clouds.No wind45%30.00 "Hg10 mi
9:56 AM73 °FPassing clouds.10 mph50%29.99 "Hg10 mi
8:56 AM69 °FSunny.6 mph59%29.98 "Hg10 mi
7:56 AM61 °FSunny.No wind75%29.98 "Hg10 mi
6:56 AM55 °FSunny.5 mph83%29.98 "Hg10 mi
5:56 AM52 °FPassing clouds.No wind86%29.96 "Hg10 mi
4:56 AM50 °FClear.No wind86%29.93 "Hg10 mi
3:56 AM53 °FClear.No wind86%29.92 "Hg10 mi
2:56 AM52 °FClear.3 mph93%29.90 "Hg10 mi
1:56 AM54 °FClear.No wind86%29.90 "Hg10 mi
12:56 AM51 °FClear.3 mph92%29.90 "Hg10 mi
11:56 PM
Tue, May 26
58 °FHigh level clouds.No wind78%29.90 "Hg10 mi
10:56 PM57 °FMostly cloudy.No wind87%29.89 "Hg10 mi
9:56 PM60 °FMostly cloudy.6 mph75%29.87 "Hg10 mi
8:56 PM62 °FMore clouds than sun.3 mph73%29.84 "Hg10 mi
7:56 PM65 °FMore clouds than sun.7 mph63%29.83 "Hg10 mi
Weather by CustomWeather, © 2015

See weather overviewHow to use our weather pages